Time,TemperatureF,DewpointF,PressureIn,WindDirection,WindDirectionDegrees,WindSpeedMPH,WindSpeedGustMPH,Humidity,HourlyPrecipIn,Conditions,Clouds,dailyrainin,SoftwareType,DateUTC
2013-10-01 00:07:00,45.4,44.0,29.97,ENE,67,0.0,-999.0,95,-99.99,,,0.00,weatherlink.com 1.10,2013-10-01 04:07:00,
2013-10-01 00:22:00,44.4,43.0,29.97,ENE,67,0.0,-999.0,94,-99.99,,,0.00,weatherlink.com 1.10,2013-10-01 04:22:00,
2013-10-01 00:37:00,43.8,43.0,29.96,ENE,67,0.0,-999.0,95,-99.99,,,0.00,weatherlink.com 1.10,2013-10-01 04:37:00,
2013-10-01 00:53:00,43.8,43.0,29.96,ENE,67,0.0,-999.0,95,-99.99,,,0.00,weatherlink.com 1.10,2013-10-01 04:53:00,
2013-10-01 01:08:00,43.3,42.0,29.96,ENE,67,0.0,-999.0,95,-99.99,,,0.00,weatherlink.com 1.10,2013-10-01 05:08:00,
2013-10-01 01:23:00,43.0,42.0,29.96,ENE,67,0.0,-999.0,95,-99.99,,,0.00,weatherlink.com 1.10,2013-10-01 05:23:00,
2013-10-01 01:38:00,42.8,42.0,29.95,ENE,67,0.0,-999.0,95,-99.99,,,0.00,weatherlink.com 1.10,2013-10-01 05:38:00,
2013-10-01 01:53:00,42.6,42.0,29.96,ENE,67,0.0,-999.0,96,-99.99,,,0.00,weatherlink.com 1.10,2013-10-01 05:53:00,
2013-10-01 02:08:00,42.6,42.0,29.96,ENE,67,0.0,-999.0,96,-99.99,,,0.00,weatherlink.com 1.10,2013-10-01 06:08:00,
2013-10-01 02:23:00,42.0,41.0,29.96,ENE,67,0.0,-999.0,95,-99.99,,,0.00,weatherlink.com 1.10,2013-10-01 06:23:00,
2013-10-01 02:38:00,42.2,41.0,29.95,ENE,67,0.0,-999.0,96,-99.99,,,0.00,weatherlink.com 1.10,2013-10-01 06:38:00,
2013-10-01 02:53:00,42.0,41.0,29.95,ENE,67,0.0,-999.0,96,-99.99,,,0.00,weatherlink.com 1.10,2013-10-01 06:53:00,
2013-10-01 03:08:00,41.5,40.0,29.95,ENE,67,0.0,-999.0,95,-99.99,,,0.00,weatherlink.com 1.10,2013-10-01 07:08:00,
2013-10-01 03:38:00,40.9,40.0,29.95,ENE,67,0.0,-999.0,96,-99.99,,,0.00,weatherlink.com 1.10,2013-10-01 07:38:00,
2013-10-01 03:54:00,40.6,40.0,29.95,ENE,67,0.0,-999.0,96,-99.99,,,0.00,weatherlink.com 1.10,2013-10-01 07:54:00,
2013-10-01 04:09:00,40.9,40.0,29.95,ENE,67,0.0,-999.0,96,-99.99,,,0.00,weatherlink.com 1.10,2013-10-01 08:09:00,
2013-10-01 04:24:00,40.7,40.0,29.95,ENE,67,0.0,-999.0,96,-99.99,,,0.00,weatherlink.com 1.10,2013-10-01 08:24:00,
2013-10-01 04:39:00,40.0,39.0,29.95,ENE,67,0.0,-999.0,95,-99.99,,,0.00,weatherlink.com 1.10,2013-10-01 08:39:00,
2013-10-01 04:54:00,39.5,39.0,29.95,ENE,67,0.0,-999.0,96,-99.99,,,0.00,weatherlink.com 1.10,2013-10-01 08:54:00,
2013-10-01 05:09:00,39.5,39.0,29.95,ENE,67,0.0,-999.0,96,-99.99,,,0.00,weatherlink.com 1.10,2013-10-01 09:09:00,
2013-10-01 05:24:00,39.3,38.0,29.96,ENE,67,0.0,-999.0,96,-99.99,,,0.00,weatherlink.com 1.10,2013-10-01 09:24:00,
2013-10-01 05:39:00,39.1,38.0,29.96,ENE,67,0.0,-999.0,96,-99.99,,,0.00,weatherlink.com 1.10,2013-10-01 09:39:00,
2013-10-01 05:54:00,38.9,38.0,29.96,ENE,67,0.0,-999.0,96,-99.99,,,0.00,weatherlink.com 1.10,2013-10-01 09:54:00,
2013-10-01 06:11:00,38.6,38.0,29.96,ENE,67,0.0,-999.0,96,-99.99,,,0.00,weatherlink.com 1.10,2013-10-01 10:11:00,
2013-10-01 06:25:00,38.7,38.0,29.95,ENE,67,0.0,-999.0,96,-99.99,,,0.00,weatherlink.com 1.10,2013-10-01 10:25:00,
2013-10-01 06:40:00,38.2,37.0,29.96,ENE,67,0.0,-999.0,96,-99.99,,,0.00,weatherlink.com 1.10,2013-10-01 10:40:00,
2013-10-01 06:55:00,37.7,37.0,29.96,ENE,67,0.0,-999.0,96,-99.99,,,0.00,weatherlink.com 1.10,2013-10-01 10:55:00,
2013-10-01 07:10:00,37.4,36.0,29.96,ENE,67,0.0,-999.0,96,-99.99,,,0.00,weatherlink.com 1.10,2013-10-01 11:10:00,
2013-10-01 07:25:00,37.3,36.0,29.96,ENE,67,0.0,-999.0,96,-99.99,,,0.00,weatherlink.com 1.10,2013-10-01 11:25:00,
2013-10-01 07:40:00,37.7,37.0,29.96,ENE,67,0.0,-999.0,97,-99.99,,,0.00,weatherlink.com 1.10,2013-10-01 11:40:00,
2013-10-01 07:55:00,38.5,38.0,29.96,ENE,67,0.0,-999.0,97,-99.99,,,0.00,weatherlink.com 1.10,2013-10-01 11:55:00,
2013-10-01 08:10:00,39.6,39.0,29.97,ENE,67,0.0,-999.0,97,-99.99,,,0.00,weatherlink.com 1.10,2013-10-01 12:10:00,
2013-10-01 08:25:00,42.5,42.0,29.97,ENE,67,0.0,-999.0,98,-99.99,,,0.00,weatherlink.com 1.10,2013-10-01 12:25:00,
2013-10-01 08:40:00,45.7,45.0,29.97,ENE,67,0.0,-999.0,98,-99.99,,,0.00,weatherlink.com 1.10,2013-10-01 12:40:00,
2013-10-01 08:56:00,49.1,49.0,29.97,ENE,67,0.0,-999.0,98,-99.99,,,0.00,weatherlink.com 1.10,2013-10-01 12:56:00,
2013-10-01 09:11:00,51.0,51.0,29.97,ENE,67,0.0,-999.0,98,-99.99,,,0.00,weatherlink.com 1.10,2013-10-01 13:11:00,
2013-10-01 09:26:00,53.2,53.0,29.96,ENE,67,0.0,-999.0,99,-99.99,,,0.00,weatherlink.com 1.10,2013-10-01 13:26:00,
2013-10-01 09:42:00,56.1,54.0,29.96,ENE,67,0.0,-999.0,93,-99.99,,,0.00,weatherlink.com 1.10,2013-10-01 13:42:00,
2013-10-01 09:57:00,59.4,55.0,29.96,ENE,67,0.0,-999.0,86,-99.99,,,0.00,weatherlink.com 1.10,2013-10-01 13:57:00,
2013-10-01 10:12:00,61.6,57.0,29.95,ENE,67,0.0,-999.0,84,-99.99,,,0.00,weatherlink.com 1.10,2013-10-01 14:12:00,
2013-10-01 10:27:00,64.2,58.0,29.95,NW,321,0.0,-999.0,81,-99.99,,,0.00,weatherlink.com 1.10,2013-10-01 14:27:00,
2013-10-01 10:42:00,66.6,58.0,29.94,NNW,332,0.0,-999.0,74,-99.99,,,0.00,weatherlink.com 1.10,2013-10-01 14:42:00,
2013-10-01 10:58:00,68.8,57.0,29.93,NNW,337,2.0,-999.0,67,-99.99,,,0.00,weatherlink.com 1.10,2013-10-01 14:58:00,
2013-10-01 11:12:00,70.2,57.0,29.93,ENE,57,0.0,-999.0,63,-99.99,,,0.00,weatherlink.com 1.10,2013-10-01 15:12:00,
2013-10-01 11:27:00,71.2,56.0,29.92,NNE,12,0.0,-999.0,58,-99.99,,,0.00,weatherlink.com 1.10,2013-10-01 15:27:00,
2013-10-01 11:42:00,72.4,56.0,29.91,ENE,60,4.0,-999.0,57,-99.99,,,0.00,weatherlink.com 1.10,2013-10-01 15:42:00,
2013-10-01 11:58:00,72.4,55.0,29.91,East,99,5.0,-999.0,55,-99.99,,,0.00,weatherlink.com 1.10,2013-10-01 15:58:00,
2013-10-01 12:27:00,73.7,55.0,29.90,ENE,65,1.0,-999.0,52,-99.99,,,0.00,weatherlink.com 1.10,2013-10-01 16:27:00,
2013-10-01 12:43:00,73.8,54.0,29.88,East,92,5.0,-999.0,51,-99.99,,,0.00,weatherlink.com 1.10,2013-10-01 16:43:00,
2013-10-01 12:58:00,75.1,56.0,29.88,North,355,4.0,-999.0,52,-99.99,,,0.00,weatherlink.com 1.10,2013-10-01 16:58:00,
2013-10-01 13:13:00,75.6,54.0,29.87,West,275,6.0,-999.0,47,-99.99,,,0.00,weatherlink.com 1.10,2013-10-01 17:13:00,
2013-10-01 13:28:00,75.6,56.0,29.87,East,81,0.0,-999.0,50,-99.99,,,0.00,weatherlink.com 1.10,2013-10-01 17:28:00,
2013-10-01 13:43:00,76.8,54.0,29.86,WNW,302,4.0,-999.0,46,-99.99,,,0.00,weatherlink.com 1.10,2013-10-01 17:43:00,
2013-10-01 13:59:00,77.0,53.0,29.86,WNW,296,1.0,-999.0,44,-99.99,,,0.00,weatherlink.com 1.10,2013-10-01 17:59:00,
2013-10-01 14:14:00,77.6,55.0,29.86,West,266,4.0,-999.0,46,-99.99,,,0.00,weatherlink.com 1.10,2013-10-01 18:14:00,
2013-10-01 14:29:00,77.0,55.0,29.85,WNW,284,4.0,-999.0,47,-99.99,,,0.00,weatherlink.com 1.10,2013-10-01 18:29:00,
2013-10-01 14:44:00,77.4,56.0,29.85,West,278,9.0,-999.0,48,-99.99,,,0.00,weatherlink.com 1.10,2013-10-01 18:44:00,
2013-10-01 14:59:00,77.2,55.0,29.85,SSW,202,0.0,-999.0,47,-99.99,,,0.00,weatherlink.com 1.10,2013-10-01 18:59:00,
2013-10-01 15:14:00,78.3,58.0,29.84,SE,130,0.0,-999.0,49,-99.99,,,0.00,weatherlink.com 1.10,2013-10-01 19:14:00,
2013-10-01 15:29:00,77.6,58.0,29.84,ENE,67,2.0,-999.0,51,-99.99,,,0.00,weatherlink.com 1.10,2013-10-01 19:29:00,
2013-10-01 15:44:00,77.3,57.0,29.83,NW,306,6.0,-999.0,49,-99.99,,,0.00,weatherlink.com 1.10,2013-10-01 19:44:00,
2013-10-01 15:59:00,77.1,58.0,29.84,WSW,244,5.0,-999.0,51,-99.99,,,0.00,weatherlink.com 1.10,2013-10-01 19:59:00,
2013-10-01 16:14:00,76.7,57.0,29.84,SW,232,6.0,-999.0,51,-99.99,,,0.00,weatherlink.com 1.10,2013-10-01 20:14:00,
2013-10-01 16:29:00,76.1,58.0,29.83,West,279,9.0,-999.0,53,-99.99,,,0.00,weatherlink.com 1.10,2013-10-01 20:29:00,
2013-10-01 16:44:00,75.8,58.0,29.84,SE,124,1.0,-999.0,55,-99.99,,,0.00,weatherlink.com 1.10,2013-10-01 20:44:00,
2013-10-01 16:59:00,75.4,59.0,29.84,WNW,288,4.0,-999.0,58,-99.99,,,0.00,weatherlink.com 1.10,2013-10-01 20:59:00,
2013-10-01 17:14:00,74.8,59.0,29.84,WNW,287,0.0,-999.0,58,-99.99,,,0.00,weatherlink.com 1.10,2013-10-01 21:14:00,
2013-10-01 17:29:00,74.1,61.0,29.84,NNW,329,0.0,-999.0,64,-99.99,,,0.00,weatherlink.com 1.10,2013-10-01 21:29:00,
2013-10-01 17:44:00,72.3,60.0,29.84,NNW,328,0.0,-999.0,66,-99.99,,,0.00,weatherlink.com 1.10,2013-10-01 21:44:00,
2013-10-01 18:00:00,70.4,60.0,29.84,NNW,328,0.0,-999.0,70,-99.99,,,0.00,weatherlink.com 1.10,2013-10-01 22:00:00,
2013-10-01 18:15:00,68.5,60.0,29.84,NNW,328,0.0,-999.0,73,-99.99,,,0.00,weatherlink.com 1.10,2013-10-01 22:15:00,
2013-10-01 18:30:00,66.2,59.0,29.85,NNW,328,0.0,-999.0,77,-99.99,,,0.00,weatherlink.com 1.10,2013-10-01 22:30:00,
2013-10-01 18:45:00,64.5,58.0,29.85,NNW,328,0.0,-999.0,80,-99.99,,,0.00,weatherlink.com 1.10,2013-10-01 22:45:00,
2013-10-01 19:01:00,63.0,57.0,29.85,NNW,328,0.0,-999.0,82,-99.99,,,0.00,weatherlink.com 1.10,2013-10-01 23:01:00,
2013-10-01 19:15:00,62.1,57.0,29.86,NNW,328,0.0,-999.0,84,-99.99,,,0.00,weatherlink.com 1.10,2013-10-01 23:15:00,
2013-10-01 19:30:00,61.2,57.0,29.86,NNW,328,0.0,-999.0,85,-99.99,,,0.00,weatherlink.com 1.10,2013-10-01 23:30:00,
2013-10-01 19:45:00,60.4,57.0,29.87,NNW,328,0.0,-999.0,87,-99.99,,,0.00,weatherlink.com 1.10,2013-10-01 23:45:00,
2013-10-01 20:01:00,59.5,56.0,29.87,NNW,328,0.0,-999.0,89,-99.99,,,0.00,weatherlink.com 1.10,2013-10-02 00:01:00,
2013-10-01 20:16:00,58.7,56.0,29.88,NNW,328,0.0,-999.0,89,-99.99,,,0.00,weatherlink.com 1.10,2013-10-02 00:16:00,
2013-10-01 20:31:00,58.0,55.0,29.88,NNW,328,0.0,-999.0,91,-99.99,,,0.00,weatherlink.com 1.10,2013-10-02 00:31:00,
2013-10-01 20:46:00,57.5,55.0,29.88,NNW,328,0.0,-999.0,92,-99.99,,,0.00,weatherlink.com 1.10,2013-10-02 00:46:00,
2013-10-01 21:01:00,57.1,55.0,29.88,NNW,328,0.0,-999.0,93,-99.99,,,0.00,weatherlink.com 1.10,2013-10-02 01:01:00,
2013-10-01 21:16:00,56.6,54.0,29.88,NNW,328,0.0,-999.0,92,-99.99,,,0.00,weatherlink.com 1.10,2013-10-02 01:16:00,
2013-10-01 21:31:00,55.9,54.0,29.87,NNW,328,0.0,-999.0,93,-99.99,,,0.00,weatherlink.com 1.10,2013-10-02 01:31:00,
2013-10-01 21:46:00,55.4,54.0,29.88,NNW,328,0.0,-999.0,93,-99.99,,,0.00,weatherlink.com 1.10,2013-10-02 01:46:00,
2013-10-01 22:01:00,54.9,53.0,29.88,NNW,328,0.0,-999.0,93,-99.99,,,0.00,weatherlink.com 1.10,2013-10-02 02:01:00,
2013-10-01 22:16:00,54.6,53.0,29.88,NNW,328,0.0,-999.0,94,-99.99,,,0.00,weatherlink.com 1.10,2013-10-02 02:16:00,
2013-10-01 22:31:00,54.4,53.0,29.88,NNW,328,0.0,-999.0,94,-99.99,,,0.00,weatherlink.com 1.10,2013-10-02 02:31:00,
2013-10-01 22:46:00,53.7,52.0,29.87,NNW,328,0.0,-999.0,94,-99.99,,,0.00,weatherlink.com 1.10,2013-10-02 02:46:00,
2013-10-01 23:01:00,53.4,52.0,29.87,NNW,328,0.0,-999.0,95,-99.99,,,0.00,weatherlink.com 1.10,2013-10-02 03:01:00,
2013-10-01 23:16:00,53.3,52.0,29.87,NNW,327,0.0,-999.0,95,-99.99,,,0.00,weatherlink.com 1.10,2013-10-02 03:16:00,
2013-10-01 23:31:00,53.3,52.0,29.87,NNW,328,0.0,-999.0,96,-99.99,,,0.00,weatherlink.com 1.10,2013-10-02 03:31:00,
2013-10-01 23:46:00,52.3,51.0,29.87,NNW,328,0.0,-999.0,94,-99.99,,,0.00,weatherlink.com 1.10,2013-10-02 03:46:00,